283  
ASUS43 KGLD 021208  
RWRGLD  
 
GOODLAND FORECAST AREA HOURLY WEATHER ROUNDUP  
NATIONAL WEATHER SERVICE GOODLAND KS  
500 AM MST FRI DEC 02 2022  
   
..OFFICIAL OBSERVATIONS
 
 
 
CITY SKY/WX TMP DP RH WIND PRES REMARKS
 
GOODLAND KS N/A N/A N/A N/A MISG 29.58F  
HILL CITY KS MOCLDY 43 28 55 SW8 29.58F  
IMPERIAL NEB MOCLDY 28 21 75 W3 29.54F  
MCCOOK NEB MOCLDY 27 22 81 SW5 29.54F  
AKRON CO MOCLDY 41 19 41 SW13 29.56F  
BURLINGTON CO CLEAR 47 17 30 SW16 29.60F  
LIMON CO PTCLDY 22 9 57 CALM 29.61F  

 
   
..UNOFFICIAL OBSERVATIONS
 
 
 
CITY SKY/WX TMP DP RH WIND PRES REMARKS
 
COLBY KS PTCLDY 47 19 32 SW16 29.57S  
NORTON KS FAIR 34 28 80 SW6 29.59S  
SHARON SPRINGS N/A 43 17 35 SW14 N/A  

 
 
 
CLICK HERE TO GO TO PREVIOUS BULLETINS.

The Nexlab KS Page
The Nexlab CO Page
The Nexlab NE Page Main Text Page